FREGAT R/B, 40891

Orbit data source: Space-Track

FREGAT R/B, 40891 is space debris originally from a launch on Fri, 11 Sep 2015 UTC launched from the French Guiana (FRGUI). Debris objects in space refer to the collection of defunct objects orbiting the Earth. Examples of debris include non-operational satellites, rocket bodies, and fragments generated from explosions, collisions, or faulty payload assembly.

Loading next visibility...
Identifier
40891, 2015-045C
Orbit
Active
Country
Flag of CISCIS
Related business
Manufacturer
Lavochkin
Mission
Spacecraft
Bus & Motor
FREGAT, Unknown motor
Mass
1,050 kg wet, 1,050 kg dry
Launch date (UTC)
2015-09-11 (11 years ago)
Launch vehicle
Unknown
Launch site
French Guiana (FRGUI)
Object type
Payload
Rocket body
Debris
Shape & HBR
Irr, 1.6 m
Radar Cross Section
11.055 m², Medium (>0.1 m² and < 1m²)

Expand to show TLE details & history
Last TLE update: 2 days ago

TLE from 2 days ago
0 FREGAT R/B
1 40891U 15045C   26171.34957273  .00000020  00000-0  00000+0 0  9995
2 40891  54.7973 224.7953 0028746 233.7173 126.0939  1.67827758 66052
Epoch: 2026-06-20T08:23Z
TLE epoch observation values (Epoch: 2026-06-20T08:23:23.083Z)
Latitude
-0°
Longitude
-169.60327°
Altitude
23,583.613 km
Speed
3.644 km/s
True Right ascension
14h 59m 14s
True Declination
0° 00' 00"
Sunlit
Object was in daylight at epoch
Visualization orbit readout
Latitude
Unknown
Longitude
Unknown
Altitude
Unknown
Speed
Unknown
Apparent Right ascension
Unknown
Apparent Declination
Unknown
Sunlit
N/A
Visualization observer readout
Local Sidereal Time
21:50:03
Azimuth
Unknown
Elevation
Unknown
Doppler factor
Unknown
Orbital elements
Apogee altitude
23,618.519 km
Perigee altitude
23,446.557 km
Semi-major axis
29,910.675 km
Eccentricity
0.00287
Inclination
54.7973°
RAAN
224.7953°
Arg. of periapsis
233.7173°
True anomaly
126.35951°
Mean anomaly
126.0939°
Eccentric anomaly
126.22676°
Mean motion
0.41957 °/min
Orbital period
858.02 mins
BSTAR
0
Loading maneuver chart data...
Computing Atmospheric mass density...
Loading historical data...
Loading historical data...
Loading historical data...
Loading historical data...
Loading historical data...
Loading historical data...
Loading historical data...
Other satellites on launch #45 in the year 2015 (2015-09-11 UTC)

Documentation

Showing up to 5 results
|